Weather in London

Canada     42°59′20″N   81°13′53″W
temp.,
°C
wind,
m/s
gust,
m/s
humid.,
%
clouds,
%
prec.,
mm/h
press.,
hPa
HPBL,
m
16 may, sun
sun1623:00+12se3360100 0.0 102335
02:00+10e2267100 0.0 102316
05:00+10nne2262100 0.0 102311
08:00+12wnw2369100 0.0 1024114
11:00+16nw445595 0.0 1024909
14:00+18nw335197 0.4 10241446
17:00+17wnw2255100 0.1 1022950
20:00+14nw227081 0.1 102323
17 may, mon
mon1723:00+11ne1177100 0.0 102310
02:00+10sse11834 0.0 102411
05:00+9se11835 0.0 102410
08:00+13sse22687 0.0 1024110
11:00+18s3353100 0.0 1025844
14:00+20s3251100 0.0 10241411
17:00+19ssw3250100 0.0 10231357
20:00+15s356875 0.0 102474
18 may, tue
tue1823:00+12s226579 0.0 102512
02:00+11ssw226429 0.0 102514
05:00+10wnw1173100 0.0 102610
08:00+14e0068100 0.0 102765
11:00+19s2254100 0.0 1027777
14:00+22s434488 0.0 10251447
17:00+21ssw4345100 0.0 10251070
20:00+17ssw2263100 0.0 102513
19 may, wed
wed1923:00+14s2261100 0.0 102513
02:00+13s2263100 0.0 102514
05:00+13se2268100 0.0 102515
08:00+15se3570100 0.0 1027129
11:00+20s4563100 0.0 1027473
14:00+23s4556100 0.0 1026986
17:00+22s4554100 0.0 1025744
20:00+18s3471100 0.0 102583
20 may, thu
thu2023:00+16sse2272100 0.0 102522
02:00+16sse3677100 0.0 102589
05:00+15s3586100 0.0 1025107
08:00+17s3684100 0.0 1027187
11:00+22ssw5667100 0.0 1026581
14:00+25ssw675751 0.0 10251166
17:00+25ssw675686 0.0 10241122
20:00+20s5117881 0.0 1024249